SB KEPS @ AMSAT $ORB25291.1 2Line Orbital Elements 25291.AMSAT QST de W1STR AMSAT Orbital Elements for Amateur Satellites in TLE Format From Orbital Analysis Office New England Sci-Tech STEM Education Center Natick MA October 18, 2025 To all radio amateurs These element sets describe the orbits of various satellites in use by the amateur radio community. For details see: www.amsat.org/keplerian-elements-formats/ A daily update of element sets is available at: www.amsat.org/tle/daily-bulletin.txt or without bulletin text: www.amsat.org/tle/dailytle.txt AO-07 1 07530U 74089B 25290.80597641 -.00000015 00000-0 19955-3 0 9990 2 07530 101.9988 296.4781 0011960 233.2692 229.9046 12.53692516330147 UO-11 1 14781U 84021B 25290.85281186 .00003205 00000-0 33919-3 0 9991 2 14781 97.7718 254.7878 0006004 265.6725 94.3806 14.89854812221034 AO-27 1 22825U 93061C 25290.77674780 .00000195 00000-0 91370-4 0 9991 2 22825 98.7225 352.8902 0009499 91.9436 268.2834 14.30846234672335 FO-29 1 24278U 96046B 25290.21336781 .00000015 00000-0 51692-4 0 9990 2 24278 98.5524 166.9204 0350128 6.8283 353.7452 13.53256921440309 NOAA-15 1 25338U 98030A 25290.80784196 .00000241 00000-0 11670-3 0 9997 2 25338 98.5285 312.7676 0009852 344.2138 15.8735 14.27037040426729 GO-32 1 25397U 98043D 25290.86110074 .00000177 00000-0 96517-4 0 9992 2 25397 98.9869 272.7964 0001411 148.7750 211.3511 14.24353383416835 ISS 1 25544U 98067A 25290.81522666 .00015612 00000-0 28896-3 0 9995 2 25544 51.6335 59.3412 0004322 304.2349 55.8229 15.49195004534185 NO-44 1 26931U 01043C 25290.85500400 .00000248 00000-0 12375-3 0 9994 2 26931 67.0494 150.9946 0007133 273.3995 86.6291 14.31807167255753 SO-50 1 27607U 02058C 25290.80589711 .00002018 00000-0 26148-3 0 9999 2 27607 64.5528 158.4316 0068585 307.0617 52.4229 14.82093183228520 CO-55 1 27844U 03031E 25290.80562285 .00000575 00000-0 26881-3 0 9991 2 27844 98.6788 297.4247 0009870 163.1809 196.9699 14.24109072157170 CO-57 1 27848U 03031J 25290.74516639 .00000456 00000-0 21983-3 0 9996 2 27848 98.6817 297.2710 0009421 180.8393 179.2771 14.23427414156880 RS-22 1 27939U 03042A 25290.81030535 .00002060 00000-0 33082-3 0 9999 2 27939 98.3378 103.5333 0010690 322.0478 161.4083 14.72728614179866 CO-58 1 28895U 05043F 25290.69132904 .00003109 00000-0 50817-3 0 9993 2 28895 98.2678 76.8498 0013366 253.4016 106.5723 14.71548482 66073 CO-65 1 32785U 08021C 25290.91297123 .00010349 00000-0 71258-3 0 9991 2 32785 97.8016 263.2740 0011474 123.2122 237.0206 15.06014966948685 CO-66 1 32791U 08021J 25290.89385198 .00027536 00000-0 11843-2 0 9994 2 32791 97.7407 274.2436 0006403 83.5138 276.6826 15.22592976950297 RS-30 1 32953U 08025A 25290.85839785 .00000032 00000-0 15805-3 0 9995 2 32953 82.5019 146.1824 0019743 119.1564 241.1495 12.43169408789587 NOAA-19 1 33591U 09005A 25290.81287887 .00000086 00000-0 69983-4 0 9995 2 33591 98.9839 356.1646 0013648 0.2836 359.8341 14.13418550860246 SRMSAT 1 37841U 11058D 25290.74203850 .00000509 00000-0 13253-3 0 9996 2 37841 19.9716 86.8523 0011822 56.6001 335.8900 14.11482019723520 ZACUBE-1 1 39417U 13066B 25290.83979645 .00011490 00000-0 95599-3 0 9994 2 39417 97.7967 247.3685 0041948 340.2368 19.7226 14.98156793644406 Delfi-N3xt 1 39428U 13066N 25290.77892792 .00016169 00000-0 15610-2 0 9999 2 39428 97.8294 207.0788 0079379 292.0093 67.2705 14.90551240638453 GOMX-1 1 39430U 13066Q 25290.82070334 .00003153 00000-0 48697-3 0 9999 2 39430 97.6666 141.4416 0132091 134.8771 226.3252 14.68226296634336 LO-74 1 39440U 13066AA 25290.85574458 .00007770 00000-0 76091-3 0 9997 2 39440 97.8608 234.6670 0062493 109.2099 251.5896 14.91081488640844 AO-73 1 39444U 13066AE 25290.81685240 .00015780 00000-0 11096-2 0 9992 2 39444 97.7980 253.4923 0037955 309.3351 50.4512 15.04584692643157 DTUSAT-2 1 40030U 14033W 25290.91264701 .00014192 00000-0 86698-3 0 9993 2 40030 98.0697 269.3100 0008311 354.7180 5.3958 15.10377683616059 EO-80 1 40032U 14033Y 25290.85960757 .00014437 00000-0 88020-3 0 9995 2 40032 98.0583 268.7274 0005829 285.3749 74.6834 15.10461088616023 LILACSAT-2 1 40908U 15049K 25290.85520321 .00023024 00000-0 53272-3 0 9997 2 40908 97.4992 314.5909 0010098 59.9215 300.3032 15.42428383558282 IO-86 1 40931U 15052B 25151.18580175 .00001241 00000-0 78118-4 0 9996 2 40931 6.0006 24.0987 0012733 338.8432 21.1169 14.78805930523159 Horyu-4 1 41340U 16012D 25290.82541744 .00053704 00000-0 11130-2 0 9992 2 41340 30.9955 332.0531 0003051 353.6087 6.4521 15.44462121532887 Lapan A3 1 41603U 16040E 25290.88643280 .00005792 00000-0 19605-3 0 9999 2 41603 97.1428 290.4999 0011533 154.0112 206.1711 15.30908161517719 CAS-2T 1 41847U 16066G 25290.63664802 .00002881 00000-0 41333-3 0 9992 2 41847 98.4100 3.9247 0345384 144.7697 217.6865 14.43900345469780 CAS-4B 1 42759U 17034B 25286.97241530 .03437790 89859-5 10544-2 0 9999 2 42759 42.9888 273.3261 0008257 129.3938 230.7682 16.25684504462550 CAS-4A 1 42761U 17034D 25281.34159269 .04203186 90411-5 12507-2 0 9993 2 42761 42.9927 303.5081 0008135 81.2710 278.9099 16.26032227461692 TechnoSat 1 42829U 17042E 25290.80820160 .00007962 00000-0 59777-3 0 9994 2 42829 97.4006 93.4591 0018313 200.3195 159.7304 15.02736205450278 AO-91 1 43017U 17073E 25290.77370120 .00014575 00000-0 70376-3 0 9996 2 43017 97.5032 158.2949 0167511 82.3019 279.7194 15.07151178428802 S-Net D 1 43186U 18014G 25290.83428273 .00009463 00000-0 53379-3 0 9993 2 43186 97.5481 192.4172 0010238 127.9429 232.2729 15.13335950422068 S-Net B 1 43187U 18014H 25290.77534056 .00009043 00000-0 51049-3 0 9990 2 43187 97.5489 192.3367 0011067 124.4897 235.7381 15.13311993422056 S-Net A 1 43188U 18014J 25290.83420861 .00009490 00000-0 53515-3 0 9992 2 43188 97.5495 192.5630 0010885 125.0180 235.2074 15.13341204422061 S-Net C 1 43189U 18014K 25290.77809969 .00009133 00000-0 51542-3 0 9998 2 43189 97.5514 192.5436 0012581 119.5621 240.6865 15.13306024420608 Ten-Koh 1 43677U 18084G 25290.80105925 .00004220 00000-0 33296-3 0 9990 2 43677 98.0713 108.2149 0008940 184.1154 175.9997 15.01281678379776 PO-101 1 43678U 18084H 25290.85588642 .00005161 00000-0 43072-3 0 9995 2 43678 98.1074 112.0671 0007418 196.3736 163.7247 14.99019173379892 QO-100 1 43700U 18090A 25290.84534358 .00000136 00000-0 00000+0 0 9999 2 43700 0.0226 233.4803 0001847 11.6426 111.5985 1.00269668 25240 MinXSS-2 1 43758U 18099A 25290.80141757 .00037822 00000-0 12666-2 0 9990 2 43758 97.4884 357.5461 0011284 61.4448 298.7927 15.30783770376857 AO-95 1 43770U 18099N 25290.60751205 .00016732 00000-0 77753-3 0 9993 2 43770 97.4768 347.3591 0011484 117.2052 243.0355 15.20002081376289 SNUSat 2 1 43782U 18099AA 25290.61132992 .00013215 00000-0 67360-3 0 9999 2 43782 97.4454 343.0123 0012869 67.3193 292.9399 15.16816385376193 SnugLite 1 43784U 18099AC 25290.80582034 .00018437 00000-0 84825-3 0 9994 2 43784 97.4266 343.0705 0004638 73.9175 286.2571 15.20372434376409 ITASat 1 1 43786U 18099AE 25290.77145709 .00012564 00000-0 67705-3 0 9999 2 43786 97.4419 342.2735 0015199 114.3686 245.9134 15.14832213376154 EAGLET 1 1 43790U 18099AJ 25290.13916160 .00006448 00000-0 39654-3 0 9997 2 43790 97.4623 341.1373 0013417 103.4676 256.8050 15.10299295375612 ESEO 1 43792U 18099AL 25290.57055410 .00002335 00000-0 17675-3 0 9999 2 43792 97.4340 333.0337 0014702 82.1956 278.0938 15.03158924375348 JO-97 1 43803U 18099AX 25290.80150081 .00023612 00000-0 96392-3 0 9992 2 43803 97.4515 348.8774 0007873 57.4428 302.7569 15.24378042376584 Suomi 100 1 43804U 18099AY 25290.78307698 .00020629 00000-0 92120-3 0 9998 2 43804 97.4579 347.7366 0012622 58.7672 301.4799 15.21313163376472 ISAT 1 43879U 18111D 25290.82322166 .00049605 00000-0 13853-2 0 9997 2 43879 97.5877 208.5327 0011068 94.3813 265.8695 15.36494610373640 UWE-4 1 43880U 18111E 25290.80776683 .00037289 00000-0 12491-2 0 9996 2 43880 97.5819 205.9550 0013523 106.5152 253.7575 15.30751508373512 Sparrow 1 43881U 18111F 25290.74990804 .00051310 00000-0 13552-2 0 9993 2 43881 97.6049 211.9006 0008887 117.5383 242.6765 15.38239887373749 Prox-1 1 44339U 19036A 25290.29770494 .00019916 00000-0 23528-2 0 9990 2 44339 23.9967 287.9753 0007445 117.3619 242.7637 14.83087823337277 Taurus 1 1 44530U 19059C 25290.89807060 .00013990 00000-0 24550-2 0 9996 2 44530 98.6203 76.7430 0008687 350.7258 9.3783 14.67811250323049 Duchifat 3 1 44854U 19089C 25290.20453201 .00181681 00000-0 16939-2 0 9992 2 44854 36.9344 242.4838 0009441 242.7440 117.2361 15.65785100323184 TO-108 1 44881U 19093C 25290.81180918 .00001618 00000-0 19136-3 0 9990 2 44881 97.7817 3.6839 0014187 158.6411 201.5399 14.85907830315410 FloripaSat 1 1 44885U 19093G 25290.83559330 .00011548 00000-0 92775-3 0 9997 2 44885 97.8091 18.7988 0010944 142.4957 217.7031 15.00151277316264 RS-44 1 44909U 19096E 25290.88093963 .00000044 00000-0 13495-3 0 9998 2 44909 82.5196 140.7321 0217423 351.1909 8.5401 12.79744632271355 UPMSat 2 1 46276U 20061E 25284.11510829 .12115553 24945-5 13983-3 0 9991 2 46276 97.2106 5.1352 0012001 257.8540 102.1421 16.49625583285008 SALSAT 1 46495U 20068K 25290.78144932 .00014579 00000-0 58684-3 0 9990 2 46495 97.8745 275.1067 0012997 73.6241 286.6424 15.24916946278353 CSS (TIANHE-1) 1 48274U 21035A 25290.62306409 .00047068 00000-0 56508-3 0 9996 2 48274 41.4666 357.6657 0011336 231.3071 128.6754 15.59994995255262 TUBIN 1 48900U 21059X 25290.86245536 .00165563 00000-0 97455-3 0 9994 2 48900 97.6734 112.0836 0001807 109.1571 250.9890 15.77737076240447 LEDSAT 1 49069U 21073D 25287.95720868 .11134366 25314-5 40586-3 0 9991 2 49069 97.3489 17.4861 0013151 272.2565 87.7231 16.42992651231488 CUTE 1 49263U 21088D 25290.77004359 .00035920 00000-0 55779-3 0 9991 2 49263 97.4403 11.3047 0007041 115.4907 244.7075 15.53860740224598 TeikyoSat 4 1 49396U 21102B 25290.81431782 .00003099 00000-0 20352-3 0 9995 2 49396 97.3985 324.5033 0013743 52.3326 307.9147 15.08262014216170 Z-Sat 1 49399U 21102E 25290.80645132 .00007443 00000-0 39310-3 0 9994 2 49399 97.3673 328.4359 0017961 17.7497 342.4360 15.15653722216697 KOSEN 1 1 49402U 21102H 25290.06592087 .00013840 00000-0 60165-3 0 9997 2 49402 97.3569 332.1608 0014665 351.9273 8.1725 15.22291371216976 HO-113 1 50466U 21131B 25290.82537399 .00000894 00000-0 29200-3 0 9990 2 50466 98.5073 19.5287 0005278 104.6641 255.5133 14.40995175200204 SNUGLITE 2 1 52899U 22065F 25290.81545558 .00002105 00000-0 41423-3 0 9992 2 52899 98.1879 71.6904 0008546 68.5150 291.6963 14.63596904175536 UmKA 1 (RS40S) 1 57172U 23091G 25290.63149954 .00009909 00000-0 50293-3 0 9995 2 57172 97.5436 345.3581 0012565 240.7468 119.2509 15.17052155127185 CubeBel-2 (EU11S) 1 57175U 23091K 25290.80985397 .00017630 00000-0 77083-3 0 9992 2 57175 97.5433 347.5599 0010112 243.8411 116.1785 15.22098013127345 ENSO 1 58470U 23185J 25286.99676613 .00315332 00000-0 14127-2 0 9997 2 58470 97.3538 7.7888 0004942 287.2111 72.8618 15.83344704104804 SONATE-2 1 59112U 24043Q 25290.81857639 .00037498 00000-0 90183-3 0 9991 2 59112 97.5290 65.1691 0009756 11.0657 349.0802 15.41166834 90359 MO-122 1 60209U 24125G 25290.85684966 .00042531 00000-0 99600-3 0 9993 2 60209 97.2612 141.3513 0017433 32.9949 327.2382 15.41829971 71987 GRBBeta 1 60237U 24128C 25290.65135929 .00005748 00000-0 41476-3 0 9992 2 60237 61.9925 345.6482 0057000 84.7111 276.0481 15.03965224 69750 Curium One 1 60242U 24128H 25290.63810560 .00011019 00000-0 71019-3 0 9991 2 60242 61.9820 341.7990 0056820 81.1651 279.5870 15.07440526 69825 ROBUSTA-3A 1 60243U 24128J 25290.55251611 .00010402 00000-0 68254-3 0 9991 2 60243 61.9894 343.3994 0056380 78.6873 282.0548 15.06852056 69798 CatSat 1 60246U 24125J 25290.84933663 .00043175 00000-0 12168-2 0 9992 2 60246 97.2429 139.0104 0037518 351.8069 8.2557 15.35582351 69939 HYPERVIEW-1G (RS66S) 1 61772U 24199AP 25290.71716910 .00046935 00000-0 10846-2 0 9996 2 61772 97.3298 159.6674 0014035 84.5056 275.7792 15.42264664 96961 AO-123 1 61781U 24199AY 25290.73110336 .00012454 00000-0 42391-3 0 9998 2 61781 97.3326 156.8376 0017070 94.7274 265.5916 15.30411809 96774 ZIMSAT 2 1 61783U 24199BA 25290.76538856 .00129569 00000-0 19172-2 0 9990 2 61783 97.3231 161.7932 0012730 78.6738 281.5946 15.54753678100268 HADES-R (SO-124) 1 62690U 25009CK 25290.27466623 .00102581 00000-0 23270-2 0 9996 2 62690 97.3979 11.4626 0001765 316.7565 43.3544 15.42677059 42039 HYDRA-T 1 62692U 25009CM 25290.16212227 .00103959 00000-0 23085-2 0 9999 2 62692 97.3977 11.4597 0001851 302.2289 57.8779 15.43308014 42027 JINJUSat 1B 1 63210U 25052A 25290.69928193 .00022710 00000-0 93357-3 0 9993 2 63210 97.4229 183.3038 0002515 187.2226 172.8976 15.24176061 33047 NUSHSAT 1 1 63211U 25052B 25290.66038250 .00025923 00000-0 10439-2 0 9995 2 63211 97.4216 183.3256 0002165 193.8082 166.3097 15.24843979 33041 TEVEL2-4 1 63213U 25052D 25290.63997310 .00024621 00000-0 10065-2 0 9994 2 63213 97.4135 182.9667 0000871 205.0804 155.0391 15.24349461 33032 TEVEL2-5 1 63214U 25052E 25290.64321715 .00025240 00000-0 10331-2 0 9990 2 63214 97.4136 182.9632 0000897 206.0833 154.0359 15.24301943 33033 TEVEL2-6 1 63215U 25052F 25290.64880269 .00024328 00000-0 99736-3 0 9998 2 63215 97.4136 182.9592 0000887 213.2244 146.8938 15.24256100 33030 TEVEL2-1 1 63217U 25052H 25290.68045668 .00023511 00000-0 97198-3 0 9993 2 63217 97.4109 182.8464 0000765 272.7675 87.3475 15.23979701 33035 TEVEL2-3 1 63218U 25052J 25290.61462677 .00023135 00000-0 95629-3 0 9999 2 63218 97.4110 182.7845 0000805 276.4743 83.6402 15.23988801 33021 TEVEL2-2 1 63219U 25052K 25290.68122552 .00023576 00000-0 97473-3 0 9990 2 63219 97.4109 182.8472 0000785 273.9103 86.2044 15.23977524 33038 TEVEL2-9 1 63237U 25052AD 25290.65752640 .00022994 00000-0 98943-3 0 9990 2 63237 97.4174 182.6036 0005200 288.3962 71.6708 15.22617240 33001 TEVEL2-7 1 63238U 25052AE 25290.66664323 .00022133 00000-0 95573-3 0 9993 2 63238 97.4175 182.5967 0005269 288.5368 71.5295 15.22505721 33002 TEVEL2-8 1 63239U 25052AF 25290.67127286 .00022236 00000-0 96094-3 0 9990 2 63239 97.4174 182.5885 0005273 288.8773 71.1892 15.22477235 33006 HYDRA-W 1 63490U 25052BL 25290.50769331 .00069610 00000-0 21944-2 0 9992 2 63490 97.4113 183.8655 0005703 279.1532 80.9064 15.32611565 33085 HADES-ICM (SO-125) 1 63492U 25052BN 25290.64449852 .00062118 00000-0 20268-2 0 9996 2 63492 97.4121 183.8537 0006432 284.7468 75.3060 15.31536967 33091 /EX